Weather History for Nuiqsut, AK

Change the Weather History Date:

Monday, December 9, 2013

  Actual Average (PAKU) Record (PAKU)
Temperature  
Mean Temperature 8 °F -  
Max Temperature 16 °F -2 °F 80 °F (2004)
Min Temperature -2 °F -9 °F -42 °F (1990)
Degree Days  
Heating Degree Days 57    
Moisture  
Dew Point 3 °F    
Average Humidity 91    
Maximum Humidity 95    
Minimum Humidity 87    
Precipitation  
Precipitation 0.00 in - - ()
Sea Level Pressure  
Sea Level Pressure 30.32 in    
Wind  
Wind Speed 24 mph (East)    
Max Wind Speed 32 mph    
Max Gust Speed 40 mph    
Visibility 3 miles    
Events Snow    
Averages and records for this station are not official NWS values.
T = Trace of Precipitation, MM = Missing Value Source: NWS Daily Summary

Daily Weather History Graph

Daily Weather History Graph

Search for Another Location

Airport:

Trip Planner

Search our weather history database for the weather conditions in past years. The results will help you decide how hot, cold, wet, or windy it might be!

Date:

Astronomy

Dec. 31, 1969 Rise Set
Actual Time Sun does not rise Sun does not rise
Civil Twilight 10:44 AM AKST 3:08 PM AKST
Nautical Twilight 8:58 AM AKST 4:54 PM AKST
Astronomical Twilight 7:38 AM AKST 6:14 PM AKST
Moon 1:13 PM AKST (12/9) 12:18 AM AKST (12/9)
Length of Visible Light 4h 24m
Length of Day
0h 00m
First Quarter, 52% of the Moon is Illuminated
Dec 9
First Quarter
Dec 17
Full
Dec 25
Last Quarter
Jan 1
New
Jan 7
First Quarter

Hourly Weather History & Observations

Time (AKST) Temp. Windchill Dew Point Humidity Pressure Visibility Wind Dir Wind Speed Gust Speed Precip Events Conditions
12:03 AM 16.0 °F 1.1 °F 14.0 °F 92% 30.30 in 4.0 mi East 15.0 mph - 0.00 in Snow Light Snow
12:53 AM 15.1 °F -1.6 °F 14.0 °F 95% 30.32 in 5.0 mi East 18.4 mph - 0.00 in   Overcast
1:10 AM 15.1 °F -1.6 °F 12.9 °F 91% 30.31 in 6.0 mi East 18.4 mph - 0.00 in   Overcast
1:53 AM 14.0 °F -4.3 °F 12.0 °F 92% 30.32 in 6.0 mi East 21.9 mph - 0.00 in Snow Blowing Snow
2:06 AM 14.0 °F -4.3 °F 12.0 °F 92% 30.33 in 5.0 mi East 21.9 mph - N/A Snow Blowing Snow
2:53 AM 12.9 °F -5.7 °F 10.9 °F 92% 30.34 in 6.0 mi East 21.9 mph - N/A   Overcast
3:49 AM 10.4 °F -9.1 °F 8.6 °F 92% 30.33 in 2.5 mi East 21.9 mph - N/A Snow Blowing Snow
3:53 AM 10.9 °F -9.2 °F 9.0 °F 92% 30.33 in 3.0 mi East 24.2 mph - N/A Snow Blowing Snow
4:11 AM 10.0 °F -11.1 °F 9.0 °F 95% 30.33 in 2.5 mi East 26.5 mph - N/A Snow Blowing Snow
4:22 AM 10.0 °F -11.5 °F 8.1 °F 92% 30.32 in 2.5 mi East 27.6 mph - N/A Snow Blowing Snow
4:53 AM 9.0 °F -12.2 °F 7.0 °F 92% 30.33 in 2.5 mi East 25.3 mph - N/A Snow Blowing Snow
5:24 AM 9.0 °F -12.6 °F 7.0 °F 92% 30.32 in 1.8 mi East 26.5 mph - N/A Snow Blowing Snow
5:36 AM 8.1 °F -13.8 °F 7.0 °F 95% 30.32 in 2.0 mi East 26.5 mph - N/A Snow Blowing Snow
5:53 AM 8.1 °F -14.2 °F 6.1 °F 92% 30.33 in 1.8 mi East 27.6 mph - N/A Snow Blowing Snow
6:19 AM 7.0 °F -15.6 °F 5.0 °F 92% 30.32 in 2.0 mi East 27.6 mph - N/A Snow Blowing Snow
6:21 AM 7.0 °F -16.3 °F 5.0 °F 92% 30.32 in 1.8 mi East 29.9 mph - N/A Snow Blowing Snow
6:53 AM 6.1 °F -16.8 °F 3.9 °F 91% 30.32 in 1.8 mi East 27.6 mph - N/A Snow Blowing Snow
7:06 AM 6.1 °F -16.8 °F 3.9 °F 91% 30.31 in 1.5 mi East 27.6 mph - N/A Snow Blowing Snow
7:14 AM 6.1 °F -16.8 °F 3.9 °F 91% 30.31 in 1.5 mi East 27.6 mph - N/A Snow Blowing Snow
7:53 AM 5.0 °F -18.7 °F 3.0 °F 92% 30.31 in 1.8 mi East 28.8 mph - N/A Snow Blowing Snow
8:15 AM 3.9 °F -19.8 °F 1.9 °F 91% 30.29 in 1.5 mi East 27.6 mph 35.7 mph N/A Snow Blowing Snow
8:53 AM 3.9 °F -20.1 °F 1.9 °F 91% 30.30 in 1.8 mi East 28.8 mph - N/A Snow Blowing Snow
9:27 AM 3.9 °F -20.5 °F 1.0 °F 88% 30.28 in 2.0 mi East 29.9 mph - N/A Snow Blowing Snow
9:35 AM 3.0 °F -21.7 °F 1.0 °F 91% 30.28 in 1.8 mi East 29.9 mph 38.0 mph N/A Snow Blowing Snow
9:53 AM 3.0 °F -22.1 °F 1.0 °F 91% 30.28 in 1.2 mi East 31.1 mph - N/A Snow Blowing Snow
10:53 AM 3.0 °F -21.4 °F 1.0 °F 91% 30.28 in 1.8 mi East 28.8 mph - N/A Snow Blowing Snow
11:53 AM 3.0 °F -21.0 °F 1.0 °F 91% 30.27 in 1.2 mi East 27.6 mph 36.8 mph N/A Snow Blowing Snow
12:17 PM 1.9 °F -23.2 °F -0.0 °F 91% 30.26 in 2.0 mi East 29.9 mph - N/A Snow Blowing Snow
12:30 PM 1.9 °F -23.9 °F -0.0 °F 91% 30.26 in 2.0 mi East 32.2 mph - N/A   Overcast
12:43 PM 1.9 °F -23.2 °F -0.0 °F 91% 30.27 in 1.8 mi East 29.9 mph - N/A Snow Blowing Snow
12:53 PM 1.9 °F -22.4 °F -0.0 °F 91% 30.28 in 2.0 mi East 27.6 mph 35.7 mph N/A Snow Blowing Snow
1:12 PM 3.0 °F -20.6 °F 1.0 °F 91% 30.27 in 1.8 mi East 26.5 mph 34.5 mph N/A Snow Blowing Snow
1:21 PM 3.0 °F -21.7 °F 1.0 °F 91% 30.27 in 2.0 mi East 29.9 mph - N/A   Overcast
1:38 PM 3.0 °F -22.1 °F 1.0 °F 91% 30.26 in 1.5 mi East 31.1 mph 38.0 mph N/A Snow Blowing Snow
1:53 PM 3.0 °F -22.4 °F 1.0 °F 91% 30.27 in 1.2 mi East 32.2 mph 39.1 mph N/A Snow Blowing Snow
2:53 PM 3.0 °F -21.4 °F 1.0 °F 91% 30.27 in 1.0 mi East 28.8 mph 40.3 mph N/A Snow Blowing Snow
3:53 PM 3.9 °F -19.4 °F 1.9 °F 91% 30.28 in 1.8 mi East 26.5 mph - N/A Snow Blowing Snow
4:01 PM 3.9 °F -19.4 °F 1.9 °F 91% 30.27 in 2.0 mi East 26.5 mph 35.7 mph N/A   Overcast
4:46 PM 3.9 °F -19.8 °F 1.9 °F 91% 30.29 in 1.5 mi ENE 27.6 mph - 0.00 in Snow Light Snow
4:53 PM 3.9 °F -20.1 °F 1.9 °F 91% 30.30 in 1.5 mi ENE 28.8 mph - 0.00 in Snow Light Snow
5:23 PM 3.9 °F -20.1 °F 1.9 °F 91% 30.30 in 1.5 mi ENE 28.8 mph - 0.00 in Snow Blowing Snow
5:53 PM 3.0 °F -21.4 °F 1.0 °F 91% 30.32 in 1.2 mi ENE 28.8 mph 40.3 mph 0.00 in Snow Blowing Snow
6:38 PM 3.0 °F -21.0 °F 1.0 °F 91% 30.34 in 1.5 mi ENE 27.6 mph 35.7 mph N/A Snow Blowing Snow
6:53 PM 3.0 °F -21.7 °F 1.0 °F 91% 30.35 in 1.5 mi ENE 29.9 mph 35.7 mph N/A Snow Blowing Snow
7:26 PM 3.0 °F -21.0 °F -0.0 °F 87% 30.37 in 3.0 mi ENE 27.6 mph 34.5 mph N/A Snow Blowing Snow
7:43 PM 1.9 °F -22.0 °F -0.0 °F 91% 30.38 in 2.5 mi ENE 26.5 mph - N/A Snow Blowing Snow
7:53 PM 1.9 °F -22.0 °F -0.0 °F 91% 30.39 in 3.0 mi ENE 26.5 mph - N/A Snow Blowing Snow
8:53 PM 1.0 °F -21.9 °F -2.0 °F 87% 30.43 in 9.0 mi NE 23.0 mph - N/A   Clear
9:53 PM -0.0 °F -22.9 °F -2.9 °F 88% 30.47 in 10.0 mi NE 21.9 mph - N/A   Clear
10:53 PM -0.9 °F -25.5 °F -4.0 °F 87% 30.51 in 10.0 mi NE 25.3 mph - N/A   Clear
11:53 PM -2.0 °F -25.5 °F -5.1 °F 87% 30.56 in 10.0 mi NE 21.9 mph - N/A   Clear